Weather History for Brookhaven, MS

Change the Weather History Date:

Friday, November 2, 2012

  Actual Average (KMCB) Record (KMCB)
Temperature  
Mean Temperature 66 °F -  
Max Temperature 80 °F 72 °F 85 °F (1971)
Min Temperature 51 °F 48 °F 26 °F (1966)
Growing Degree Days 16 (Base 50)    
Moisture  
Dew Point 60 °F    
Average Humidity 85    
Maximum Humidity 100    
Minimum Humidity 54    
Precipitation  
Precipitation 0.00 in - - ()
Sea Level Pressure  
Sea Level Pressure 30.04 in    
Wind  
Wind Speed 4 mph (SW)    
Max Wind Speed 10 mph    
Max Gust Speed -    
Visibility 7 miles    
Events Fog    
Averages and records for this station are not official NWS values.
T = Trace of Precipitation, MM = Missing Value Source: NWS Daily Summary

Daily Weather History Graph

Daily Weather History Graph

Search for Another Location

Airport:

Trip Planner

Search our weather history database for the weather conditions in past years. The results will help you decide how hot, cold, wet, or windy it might be!

Date:

Astronomy

Nov. 02, 2012 Rise Set
Actual Time 7:18 AM CDT 6:11 PM CDT
Civil Twilight 6:53 AM CDT 6:36 PM CDT
Nautical Twilight 6:24 AM CDT 7:05 PM CDT
Astronomical Twilight 5:56 AM CDT 7:33 PM CDT
Moon 9:05 PM CDT (11/2) 10:32 AM CDT (11/2)
Length of Visible Light 11h 42m
Length of Day
10h 52m
Waning Gibbous, 87% of the Moon is Illuminated
Nov 2
Waning Gibbous
Nov 6
Last Quarter
Nov 13
New
Nov 20
First Quarter
Nov 28
Full

Hourly Weather History & Observations

Time (CDT) Temp. Heat Index Dew Point Humidity Pressure Visibility Wind Dir Wind Speed Gust Speed Precip Events Conditions
12:15 AM 51.8 °F - 51.8 °F 100% 30.03 in 7.0 mi South 3.5 mph - N/A   Clear
12:35 AM 53.6 °F - 51.8 °F 94% 30.03 in 6.0 mi South 4.6 mph - N/A   Clear
12:55 AM 55.4 °F - 53.6 °F 94% 30.03 in 7.0 mi South 3.5 mph - N/A   Clear
1:15 AM 55.4 °F - 53.6 °F 94% 30.03 in 9.0 mi SSW 3.5 mph - N/A   Clear
1:35 AM 55.4 °F - 51.8 °F 88% 30.03 in 10.0 mi SSW 3.5 mph - N/A   Clear
1:55 AM 55.4 °F - 51.8 °F 88% 30.03 in 10.0 mi SSW 3.5 mph - N/A   Clear
2:15 AM 55.4 °F - 53.6 °F 94% 30.03 in 10.0 mi SSW 3.5 mph - N/A   Clear
2:35 AM 53.6 °F - 53.6 °F 100% 30.03 in 7.0 mi SSW 3.5 mph - N/A   Clear
2:55 AM 53.6 °F - 53.6 °F 100% 30.03 in 5.0 mi SSW 3.5 mph - N/A   Clear
3:15 AM 55.4 °F - 55.4 °F 100% 30.03 in 4.0 mi SSW 3.5 mph - N/A   Clear
3:35 AM 55.4 °F - 55.4 °F 100% 30.02 in 2.0 mi Calm Calm - N/A   Clear
3:55 AM 55.4 °F - 55.4 °F 100% 30.02 in 1.2 mi SSW 3.5 mph - N/A   Clear
4:15 AM 55.4 °F - 55.4 °F 100% 30.01 in 1.2 mi SSW 4.6 mph - N/A   Clear
4:35 AM 57.2 °F - 57.2 °F 100% 30.02 in 1.2 mi South 3.5 mph - N/A   Clear
4:55 AM 57.2 °F - 57.2 °F 100% 30.02 in 1.8 mi South 4.6 mph - N/A   Clear
5:15 AM 57.2 °F - 57.2 °F 100% 30.02 in 1.5 mi South 4.6 mph - N/A   Clear
5:35 AM 57.2 °F - 57.2 °F 100% 30.02 in 1.5 mi South 4.6 mph - N/A   Clear
5:55 AM 57.2 °F - 57.2 °F 100% 30.03 in 1.8 mi Calm Calm - N/A   Clear
6:15 AM 57.2 °F - 57.2 °F 100% 30.03 in 1.5 mi South 3.5 mph - N/A   Clear
6:35 AM 57.2 °F - 57.2 °F 100% 30.03 in 1.2 mi Calm Calm - N/A   Clear
6:55 AM 55.4 °F - 55.4 °F 100% 30.04 in 1.2 mi Calm Calm - N/A   Clear
7:15 AM 57.2 °F - 57.2 °F 100% 30.04 in 0.8 mi Calm Calm - N/A   Overcast
7:35 AM 60.8 °F - 60.8 °F 100% 30.05 in 0.2 mi Calm Calm - N/A Fog Fog
7:55 AM 60.8 °F - 60.8 °F 100% 30.06 in 0.2 mi SW 3.5 mph - N/A Fog Fog
8:15 AM 62.6 °F - 62.6 °F 100% 30.06 in 0.5 mi SW 4.6 mph - N/A Fog Fog
8:35 AM 62.6 °F - 62.6 °F 100% 30.07 in 0.8 mi SW 4.6 mph - N/A   Overcast
9:15 AM 62.6 °F - 62.6 °F 100% 30.08 in 2.5 mi SW 6.9 mph - N/A   Overcast
9:35 AM 64.4 °F - 62.6 °F 94% 30.09 in 5.0 mi WSW 10.4 mph - N/A   Mostly Cloudy
9:55 AM 66.2 °F - 62.6 °F 88% 30.09 in 8.0 mi WSW 10.4 mph - N/A   Scattered Clouds
10:15 AM 66.2 °F - 62.6 °F 88% 30.09 in 8.0 mi SW 10.4 mph - N/A   Partly Cloudy
10:35 AM 68.0 °F - 62.6 °F 83% 30.10 in 9.0 mi WSW 8.1 mph - N/A   Clear
10:55 AM 69.8 °F - 62.6 °F 78% 30.10 in 8.0 mi WSW 6.9 mph - N/A   Clear
11:15 AM 71.6 °F - 62.6 °F 73% 30.10 in 10.0 mi WSW 8.1 mph - N/A   Clear
11:35 AM 71.6 °F - 64.4 °F 78% 30.09 in 9.0 mi WSW 6.9 mph - N/A   Clear
11:55 AM 73.4 °F - 64.4 °F 73% 30.09 in 9.0 mi SW 9.2 mph - N/A   Clear
12:15 PM 75.2 °F - 64.4 °F 69% 30.08 in 9.0 mi SW 8.1 mph - N/A   Clear
12:35 PM 75.2 °F - 64.4 °F 69% 30.07 in 10.0 mi SW 9.2 mph - N/A   Clear
12:55 PM 75.2 °F - 64.4 °F 69% 30.07 in 9.0 mi SW 6.9 mph - N/A   Clear
1:15 PM 78.8 °F - 64.4 °F 61% 30.05 in 10.0 mi WSW 3.5 mph - N/A   Clear
1:35 PM 78.8 °F - 64.4 °F 61% 30.04 in 8.0 mi SW 6.9 mph - N/A   Clear
1:55 PM 78.8 °F - 64.4 °F 61% 30.04 in 9.0 mi SW 8.1 mph - N/A   Clear
2:15 PM 80.6 °F 82.3 °F 64.4 °F 58% 30.03 in 10.0 mi West 8.1 mph - N/A   Clear
2:35 PM 80.6 °F 81.8 °F 62.6 °F 54% 30.03 in 10.0 mi West 9.2 mph - N/A   Clear
2:55 PM 80.6 °F 82.3 °F 64.4 °F 58% 30.02 in 9.0 mi West 6.9 mph - N/A   Clear
3:15 PM 80.6 °F 82.3 °F 64.4 °F 58% 30.02 in 10.0 mi WSW 9.2 mph - N/A   Clear
3:35 PM 80.6 °F 82.3 °F 64.4 °F 58% 30.02 in 10.0 mi WSW 8.1 mph - N/A   Clear
3:55 PM 80.6 °F 81.8 °F 62.6 °F 54% 30.02 in 10.0 mi SW 6.9 mph - N/A   Clear
4:15 PM 80.6 °F 81.8 °F 62.6 °F 54% 30.02 in 10.0 mi West 4.6 mph - N/A   Clear
4:35 PM 80.6 °F 81.8 °F 62.6 °F 54% 30.01 in 10.0 mi WSW 4.6 mph - N/A   Clear
4:55 PM 80.6 °F 82.3 °F 64.4 °F 58% 30.01 in 9.0 mi SW 5.8 mph - N/A   Clear
5:15 PM 80.6 °F 81.8 °F 62.6 °F 54% 30.01 in 10.0 mi SW 6.9 mph - N/A   Clear
5:35 PM 78.8 °F - 62.6 °F 57% 30.02 in 10.0 mi SSW 3.5 mph - N/A   Clear
5:55 PM 77.0 °F - 62.6 °F 61% 30.02 in 10.0 mi Calm Calm - N/A   Clear
6:15 PM 71.6 °F - 64.4 °F 78% 30.02 in 10.0 mi Calm Calm - N/A   Clear
6:35 PM 69.8 °F - 64.4 °F 83% 30.02 in 10.0 mi Calm Calm - N/A   Clear
6:55 PM 66.2 °F - 64.4 °F 94% 30.03 in 10.0 mi Calm Calm - N/A   Clear
7:15 PM 66.2 °F - 62.6 °F 88% 30.03 in 9.0 mi Calm Calm - N/A   Clear
7:35 PM 64.4 °F - 62.6 °F 94% 30.04 in 10.0 mi Calm Calm - N/A   Clear
7:55 PM 64.4 °F - 62.6 °F 94% 30.04 in 10.0 mi Calm Calm - N/A   Clear
8:15 PM 62.6 °F - 60.8 °F 94% 30.05 in 8.0 mi Calm Calm - N/A   Clear
8:35 PM 62.6 °F - 60.8 °F 94% 30.06 in 9.0 mi Calm Calm - N/A   Clear
8:55 PM 62.6 °F - 60.8 °F 94% 30.06 in 9.0 mi Calm Calm - N/A   Clear
9:15 PM 62.6 °F - 60.8 °F 94% 30.06 in 8.0 mi Calm Calm - N/A   Clear
9:35 PM 60.8 °F - 60.8 °F 100% 30.06 in 9.0 mi Calm Calm - N/A   Clear
9:55 PM 60.8 °F - 60.8 °F 100% 30.06 in 8.0 mi Calm Calm - N/A   Clear
10:15 PM 60.8 °F - 60.8 °F 100% 30.06 in 8.0 mi Calm Calm - N/A   Clear
10:35 PM 60.8 °F - 59.0 °F 94% 30.07 in 5.0 mi Calm Calm - N/A   Clear
10:55 PM 60.8 °F - 59.0 °F 94% 30.07 in 8.0 mi Calm Calm - N/A   Clear
11:15 PM 59.0 °F - 57.2 °F 94% 30.07 in 8.0 mi Calm Calm - N/A   Clear
11:35 PM 59.0 °F - 57.2 °F 94% 30.07 in 9.0 mi Calm Calm - N/A   Clear
11:55 PM 59.0 °F - 57.2 °F 94% 30.07 in 9.0 mi SSW 3.5 mph - N/A   Clear